sat.trackr.live / text

‹ back to catalog

STARLINK-32935

NORAD 63202 · 2025-048V

PAYLOAD ACTIVE UNKNOWN

§ Identity

Operator
Country
US
Launch date
2025-03-13
Launch site
AFETR
Launch vehicle
Mass (kg)
RCS (m²)

Purposes: comms

External: N2YO · Heavens-Above · Gunter

§ Orbital elements

Epoch: 2026-05-25T00:42:17.123040Z

Period
94.27 min
Inclination
43.0030°
Eccentricity
0.0001443
Mean motion
15.27594143 rev/d
Perigee alt
482.0 km
Apogee alt
484.0 km
Semi-major
6,861.1 km
B*
3.9584e-4
RAAN
14.5126°
Arg perigee
268.0802°
Mean anomaly
91.9885°
Rev number
6,876

§ Raw data

STARLINK-329351 63202U 25048V   26145.02936485  .00010651  00000+0  39584-3 0  99912 63202  43.0030  14.5126 0001443 268.0802  91.9885 15.27594143 68760

JSON: /api/v1/satellites/63202 · /tle

For live sub-satellite position, see the globe view (requires WebGL).

§ Visibility from observer

Set your observer location to see the next 7 days of passes ≥ 10°. The values pass through the URL so the page stays shareable.

No JS? Fill the form by hand. The geolocation button needs JavaScript.